Eau Claire, WI

10:27 PM CDT on April 19, 2018 (GMT -0500)
Chippewa Valley Regional

Weather History for KEAU - October, 2013

Change the Weather History Date:

Sunday, October 13, 2013

  Actual Average Record
Temperature  
Mean Temperature 49 °F 48 °F  
Max Temperature 61 °F 59 °F 84 °F (1956)
Min Temperature 36 °F 38 °F 17 °F (1917)
Degree Days  
Heating Degree Days 16 17  
Month to date heating degree days 110 188  
Since 1 July heating degree days 277 421  
Cooling Degree Days 0 0  
Month to date cooling degree days 0 4  
Year to date cooling degree days 653 579  
Moisture  
Dew Point 36 °F    
Average Humidity 68    
Maximum Humidity 100    
Minimum Humidity 35    
Precipitation  
Precipitation 0.00 in 0.07 in 1.15 in (1986)
Month to date precipitation 2.22 1.15  
Year to date precipitation 31.63 26.95  
Snow  
Snow 0.00 in 0.10 in 1.00 in (1939)
Month to date snowfall 0.0 0.1  
Since 1 July snowfall 0.0 0.1  
Since 1 September snowfall 0.0 0.1  
Snow Depth 0.00 in    
Sea Level Pressure  
Sea Level Pressure 30.36 in    
Wind  
Wind Speed 4 mph (West)    
Max Wind Speed 15 mph    
Max Gust Speed 20 mph    
Visibility 10 miles    
Events      
T = Trace of Precipitation, MM = Missing Value Source: NWS Daily Summary

Daily Weather History Graph

Daily Weather History Graph

Search for Another Location

Airport or City:

Astronomy

Oct. 13, 2013 Rise Set
Actual Time 7:19 AM CDT 6:24 PM CDT
Civil Twilight 6:49 AM CDT 6:53 PM CDT
Nautical Twilight 6:15 AM CDT 7:27 PM CDT
Astronomical Twilight 5:41 AM CDT 8:01 PM CDT
Moon 3:28 PM CDT (10/13) 1:15 AM CDT (10/13)
Length of Visible Light 12h 03m
Length of Day
11h 04m
Waxing Gibbous, 69% of the Moon is Illuminated
Oct 13
Waxing Gibbous
Oct 18
Full
Oct 26
Last Quarter
Nov 3
New
Nov 9
First Quarter

Hourly Weather History & Observations

Time (CDT) Temp. Windchill Dew Point Humidity Pressure Visibility Wind Dir Wind Speed Gust Speed Precip Events Conditions
12:56 AM 44.1 °F 40.1 °F 39.9 °F 85% 30.19 in 10.0 mi WSW 6.9 mph - N/A   Clear
1:56 AM 43.0 °F 39.5 °F 39.0 °F 86% 30.22 in 10.0 mi WSW 5.8 mph - N/A   Clear
2:56 AM 42.1 °F 38.4 °F 39.0 °F 89% 30.24 in 10.0 mi WSW 5.8 mph - N/A   Clear
3:56 AM 41.0 °F 38.0 °F 39.0 °F 93% 30.25 in 10.0 mi West 4.6 mph - N/A   Partly Cloudy
4:56 AM 41.0 °F 38.0 °F 39.0 °F 93% 30.27 in 10.0 mi WNW 4.6 mph - N/A   Clear
5:56 AM 37.9 °F 35.5 °F 37.0 °F 97% 30.31 in 10.0 mi SW 3.5 mph - N/A   Clear
6:56 AM 37.9 °F - 37.0 °F 97% 30.33 in 10.0 mi Calm Calm - N/A   Clear
7:56 AM 39.0 °F - 37.9 °F 96% 30.37 in 10.0 mi Calm Calm - N/A   Clear
8:56 AM 44.1 °F 42.5 °F 39.9 °F 85% 30.39 in 10.0 mi West 3.5 mph - N/A   Clear
9:56 AM 50.0 °F - 39.9 °F 68% 30.41 in 10.0 mi West 4.6 mph - N/A   Clear
10:56 AM 54.0 °F - 37.0 °F 53% 30.42 in 10.0 mi WNW 8.1 mph - N/A   Clear
11:56 AM 55.9 °F - 34.0 °F 44% 30.43 in 10.0 mi WNW 13.8 mph 19.6 mph N/A   Clear
12:56 PM 57.9 °F - 33.1 °F 39% 30.41 in 10.0 mi WNW 6.9 mph - N/A   Clear
1:56 PM 57.9 °F - 32.0 °F 37% 30.39 in 10.0 mi West 3.5 mph - N/A   Clear
2:56 PM 60.1 °F - 32.0 °F 35% 30.38 in 10.0 mi WNW 9.2 mph - N/A   Clear
3:56 PM 59.0 °F - 32.0 °F 36% 30.38 in 10.0 mi WSW 4.6 mph - N/A   Clear
4:56 PM 59.0 °F - 32.0 °F 36% 30.38 in 10.0 mi West 5.8 mph - N/A   Clear
5:56 PM 55.9 °F - 33.1 °F 42% 30.39 in 10.0 mi West 4.6 mph - N/A   Clear
6:56 PM 48.9 °F - 35.1 °F 59% 30.40 in 10.0 mi Calm Calm - N/A   Clear
7:56 PM 45.0 °F - 35.1 °F 68% 30.41 in 10.0 mi Calm Calm - N/A   Clear
8:56 PM 39.9 °F - 34.0 °F 79% 30.42 in 10.0 mi Calm Calm - N/A   Clear
9:56 PM 39.0 °F - 37.0 °F 93% 30.43 in 10.0 mi Calm Calm - N/A   Clear
10:56 PM 37.0 °F - 35.1 °F 93% 30.42 in 10.0 mi Calm Calm - N/A   Clear
11:56 PM 37.0 °F - 34.0 °F 89% 30.42 in 10.0 mi Calm Calm - N/A   Clear